GALAXY 19 (G-19)

Last updated on Fri Dec 19 2025 00:02:49 GMT+0000 (Coordinated Universal Time)

1 33376U 08045A 25352.60604160 -.00000114 00000+0 00000+0 0 9994 2 33376 0.0188 287.3860 0002508 343.4511 297.8054 1.00271735 63090
UTC large
Height (km)
Speed (km/s)
/
Latitude / Longitude
Inclination (degrees)
Orbital Period (minutes)
Azimuth
Elevation
Range (km)
Doppler Factor

Next 0 passes for location: London (51.5072 / 0.1276)

Sorry there are no passes over London.